Location: Springfield
(37.2150°N, 93.2980°W)
Time: 15:47:46
(UTC-06:00)

Daily predictions for brighter satellites

Satellite Brightness Start Highest point End
(mag) Time Altitude Azimuth Time Altitude Azimuth Time Altitude Azimuth
CZ-3A R/B 3.1 17:08:55 10° WSW 17:12:31 57° NNW 17:28:24 10° NE
MOS 1 4.5 17:14:19 10° SE 17:19:47 52° ENE 17:25:14 10° N
SPOT 3 Rocket 3.7 17:20:38 10° SSE 17:25:41 54° ENE 17:30:43 10° N
PAYLOAD A 3.8 17:21:14 10° SSE 17:25:59 80° ENE 17:30:54 10° N
SMAP 3.2 17:23:02 10° SSE 17:27:32 51° ENE 17:32:03 10° N
YAOGAN 1 2.8 17:24:51 10° SSE 17:28:59 47° ENE 17:33:09 10° N
Cosmos 2278 Rocket 3.1 17:26:08 10° SSE 17:30:52 28° ESE 17:35:37 10° NE
COSMOS 2406 3.2 17:28:52 10° NNW 17:34:35 69° ENE 17:40:17 10° SSE
SL-8 Rocket 4.0 17:29:43 10° N 17:35:47 57° E 17:41:48 10° SSE
IDEFIX/ARIANE 42P 2.5 17:36:46 10° SSE 17:41:57 73° ENE 17:47:08 10° N
USA 32 4.0 17:36:54 10° S 17:42:02 65° E 17:47:13 10° N
Meteor 1-5 Rocket 4.1 17:39:47 10° N 17:45:13 81° E 17:50:48 10° S
Cosmos 2181 Rocket 4.3 17:39:23 10° SSW 17:45:41 75° W 17:52:07 10° N
Cosmos 2366 rocket 4.2 17:39:42 10° N 17:45:52 50° E 17:51:57 10° SSE
Cosmos 1484 Rocket 3.6 17:42:50 10° SE 17:46:03 27° ENE 17:49:17 10° NNE
SJ-7 4.4 17:42:05 10° SSE 17:46:15 72° ENE 17:50:30 10° N
OTV 4 0.7 17:43:52 10° W 17:46:51 67° SSW 17:49:39 11° ESE
CZ-3B DEB 1.8 17:43:59 10° SW 17:47:09 89° SE 17:55:08 10° NE
Cosmos 2218 Rocket 4.0 17:41:31 10° N 17:47:44 59° E 17:53:49 10° SSE
Meteor 2-19 Rocket 4.4 17:43:44 10° N 17:49:46 65° E 17:55:45 10° SSE
SKYMED 2 4.1 17:47:40 10° NNE 17:51:44 38° E 17:55:45 10° SSE
Cosmos 1959 Rocket 4.5 17:45:41 10° N 17:51:49 64° E 17:57:59 10° SSE
USA 234 4.3 17:46:39 10° NNE 17:52:33 38° NNW 17:58:26 10° W
Cosmos 1455 Rocket 3.3 17:49:17 10° N 17:53:31 45° E 17:57:46 10° SSE
CZ-4 R/B 4.4 17:50:19 10° SSE 17:54:24 70° ENE 17:58:33 10° N
Cosmos 2082 Rocket 3.7 17:54:18 10° NNE 17:57:31 15° NE 17:57:45 15° NE
Cosmos 1833 Rocket 4.3 18:00:31 10° NNE 18:02:46 14° NE 18:02:46 14° NE
BREEZE-M DEB (TANK) 3.7 17:57:55 10° WNW 18:03:46 63° SW 18:07:19 10° SE
NOSS 3-3 (A) 4.1 17:58:20 10° SSW 18:04:18 57° ESE 18:09:41 15° NE
NOSS 3-3 (C) 4.1 17:58:27 10° SSW 18:04:24 56° ESE 18:09:45 15° NE
SL-8 R/B 3.7 18:01:16 10° SW 18:06:00 72° SE 18:09:02 22° ENE
Thor Agena Rocket 4.4 18:01:12 10° N 18:06:14 52° WNW 18:11:18 10° SSW
Cosmos 494 Rocket 4.1 18:02:41 10° N 18:07:49 52° ENE 18:12:55 10° SE
Okean 1 3.3 18:06:21 10° S 18:10:18 59° E 18:14:19 10° NNE
Cosmos 1500 3.7 18:09:15 10° NNE 18:12:46 34° E 18:16:17 10° SE
Hubble Space Telescope 3.5 18:11:10 10° SW 18:13:12 13° SSW 18:15:14 10° SSE
ATLAS 2AS CENTAUR R/B 2.9 18:07:20 10° NNW 18:15:24 69° NE 18:22:51 10° SE
Meteor 1-28 Rocket 3.7 18:15:04 27° NE 18:16:30 39° E 18:20:03 10° SSE
Meteor 1-18 Rocket 4.3 18:14:29 10° S 18:20:05 81° W 18:25:50 10° N
ISS -1.3 18:17:47 10° W 18:20:24 22° NNW 18:21:49 17° N
Cosmos 2251 Rocket 3.4 18:16:04 10° NNW 18:21:26 83° ENE 18:26:45 10° SSE
SL-27 R/B 3.4 18:26:40 10° NNW 18:30:14 51° WSW 18:33:45 10° S
Cosmos 1812 3.7 18:26:59 10° SSW 18:30:42 47° W 18:34:28 10° N
Cosmos 1346 Rocket 2.6 18:27:20 10° S 18:31:14 67° E 18:32:45 35° NNE
MSX 4.5 18:28:35 10° S 18:34:14 57° W 18:39:54 10° NNW
Tiangong 1 2.3 18:31:54 10° SSW 18:34:09 30° S 18:34:09 30° S
CZ-4 R/B 4.4 18:32:34 10° SW 18:35:29 18° W 18:38:25 10° NW
OE (NEXTSAT) 4.3 18:33:55 10° SW 18:37:28 69° SE 18:37:38 67° ESE
DMSP B5D1-3 4.5 18:34:34 10° NNE 18:39:45 86° WNW 18:44:53 10° SSW
COSMO-SKYMED 1 3.1 18:35:31 10° N 18:39:47 57° WNW 18:44:01 10° SSW
Nadezhda 3 Rocket 3.9 18:33:41 10° S 18:39:49 73° E 18:46:02 10° N
Meteor 2-21 4.3 18:36:21 10° N 18:42:33 77° E 18:48:40 10° S
GEOS 3 Rocket 3.5 18:40:20 10° SE 18:45:27 89° NE 18:50:36 10° NNW
SL-24 R/B - RUBIN 2 4.4 18:39:53 10° SSW 18:45:59 67° ESE 18:48:47 36° NE
Cosmos 1844 Rocket 4.5 18:42:01 10° WSW 18:46:44 28° WNW 18:51:30 10° N
Cosmos 1975 3.7 18:50:08 10° NNW 18:54:05 49° W 18:57:58 10° SSW
ATLAS 3B CENTAUR R/B 3.7 18:39:53 10° WSW 18:56:37 48° S 19:00:10 29° SE
Cosmos 2297 3.5 18:52:22 10° SSW 18:57:59 77° ESE 18:59:27 51° NE
Meteor 2-14 Rocket 4.3 19:00:18 10° N 19:06:30 87° E 19:12:37 10° S
BREEZE-M R/B 4.4 18:57:10 10° WSW 19:06:32 50° NW 19:08:02 39° N
Meteor 1-19 Rocket 4.2 19:03:56 10° S 19:09:42 88° W 19:12:12 36° N
OAO 1 4.5 19:04:52 10° W 19:10:19 72° S 19:10:37 70° SSE
Cosmos 2278 Rocket 3.5 19:09:36 10° SW 19:14:46 36° WNW 19:18:28 17° N
OTV 4 3.9 19:20:51 10° WSW 19:21:18 12° WSW 19:21:18 12° WSW
Okean 1-7 Rocket 4.5 19:19:44 10° SSW 19:24:06 48° W 19:24:14 48° WNW
FALCON 9 R/B 2.9 19:06:15 10° WSW 19:25:17 74° S 19:26:28 62° ESE
Cosmos 921 Rocket 4.4 19:22:48 10° SSW 19:25:23 34° SW 19:25:23 34° SW
Timation 1 Rocket 4.4 19:23:11 10° SSW 19:29:07 74° WNW 19:29:25 72° NW
BREEZE M DEB (TANK) 4.2 19:27:48 10° WSW 19:32:37 31° WNW 19:32:37 31° WNW
Cosmos 2082 Rocket 3.4 19:36:34 10° NNW 19:39:41 34° NNW 19:39:41 34° NNW
Timation 2 Rocket 4.3 19:37:04 10° NNW 19:43:52 71° WSW 19:44:53 62° SSW
Cosmos 1833 Rocket 4.4 19:42:27 10° NNW 19:44:32 23° NNW 19:44:32 23° NNW
BREEZE M DEB (TANK) 4.4 19:47:17 10° NW 19:50:35 48° NNW 19:50:35 48° NNW
